College Station, TX

3:27 AM CST on January 22, 2018 (GMT -0600)
Easterwood

Weather History for KCLL - August, 2013

Change the Weather History Date:

Tuesday, August 27, 2013

  Actual Average Record
Temperature  
Mean Temperature 84 °F 85 °F  
Max Temperature 95 °F 95 °F 109 °F (2011)
Min Temperature 73 °F 74 °F 65 °F (1997)
Degree Days  
Heating Degree Days 0 0  
Month to date heating degree days 0 0  
Since 1 June heating degree days 0 0  
Since 1 July heating degree days 0 0  
Cooling Degree Days 19 20  
Month to date cooling degree days 606 558  
Year to date cooling degree days 2385 2273  
Since 1 June cooling degree days 1821 1685  
Growing Degree Days 32 (Base 50)    
Moisture  
Dew Point 71 °F    
Average Humidity 69    
Maximum Humidity 93    
Minimum Humidity 44    
Precipitation  
Precipitation 0.00 in 0.10 in 7.46 in (2017)
Month to date precipitation 0.78 2.24  
Year to date precipitation 19.73 25.08  
Sea Level Pressure  
Sea Level Pressure 30.07 in    
Wind  
Wind Speed 6 mph (SSE)    
Max Wind Speed 18 mph    
Max Gust Speed 24 mph    
Visibility 10 miles    
Events      
T = Trace of Precipitation, MM = Missing Value Source: NWS Daily Summary

Daily Weather History Graph

Daily Weather History Graph

Search for Another Location

Airport or City:

Trip Planner

Search our weather history database for the weather conditions in past years. The results will help you decide how hot, cold, wet, or windy it might be!

Date:

Astronomy

Aug. 27, 2013 Rise Set
Actual Time 6:59 AM CDT 7:53 PM CDT
Civil Twilight 6:34 AM CDT 8:18 PM CDT
Nautical Twilight 6:05 AM CDT 8:47 PM CDT
Astronomical Twilight 5:35 AM CDT 9:17 PM CDT
Moon No Moon Rise 1:27 PM CDT (8/27)
Length of Visible Light 13h 44m
Length of Day
12h 54m
Waning Gibbous, 57% of the Moon is Illuminated
Aug 27
Waning Gibbous
Aug 28
Last Quarter
Sep 5
New
Sep 12
First Quarter
Sep 19
Full

Hourly Weather History & Observations

Time (CDT) Temp. Heat Index Dew Point Humidity Pressure Visibility Wind Dir Wind Speed Gust Speed Precip Events Conditions
12:53 AM 73.9 °F - 72.0 °F 93% 30.07 in 10.0 mi SE 4.6 mph - N/A   Clear
1:53 AM 73.9 °F - 72.0 °F 93% 30.07 in 10.0 mi SE 4.6 mph - N/A   Scattered Clouds
2:53 AM 73.9 °F - 72.0 °F 93% 30.06 in 10.0 mi ESE 4.6 mph - N/A   Overcast
3:53 AM 73.9 °F - 72.0 °F 93% 30.07 in 10.0 mi ESE 5.8 mph - N/A   Mostly Cloudy
4:53 AM 73.9 °F - 71.1 °F 91% 30.07 in 10.0 mi Calm Calm - N/A   Overcast
5:53 AM 73.9 °F - 71.1 °F 91% 30.07 in 10.0 mi East 3.5 mph - N/A   Scattered Clouds
6:53 AM 73.0 °F - 71.1 °F 93% 30.08 in 10.0 mi East 5.8 mph - N/A   Overcast
7:53 AM 73.9 °F - 71.1 °F 91% 30.10 in 10.0 mi East 10.4 mph - N/A   Scattered Clouds
8:53 AM 75.9 °F - 72.0 °F 87% 30.12 in 10.0 mi East 5.8 mph - N/A   Overcast
9:53 AM 79.0 °F - 73.0 °F 82% 30.13 in 10.0 mi ESE 10.4 mph - N/A   Partly Cloudy
10:53 AM 84.9 °F 90.7 °F 72.0 °F 65% 30.13 in 10.0 mi SE 11.5 mph - N/A   Scattered Clouds
11:53 AM 87.1 °F 92.0 °F 70.0 °F 57% 30.11 in 10.0 mi SSE 11.5 mph 16.1 mph N/A   Partly Cloudy
12:53 PM 89.1 °F 92.9 °F 68.0 °F 50% 30.10 in 10.0 mi South 10.4 mph 17.3 mph N/A   Partly Cloudy
1:53 PM 90.0 °F 94.5 °F 69.1 °F 50% 30.07 in 10.0 mi SSW 8.1 mph - N/A   Scattered Clouds
2:53 PM 91.0 °F 94.3 °F 66.9 °F 45% 30.06 in 10.0 mi Calm Calm - N/A   Clear
3:53 PM 89.1 °F 94.1 °F 70.0 °F 53% 30.04 in 10.0 mi SW 16.1 mph 24.2 mph N/A   Clear
4:53 PM 84.9 °F 90.1 °F 71.1 °F 63% 30.06 in 10.0 mi SW 10.4 mph - N/A   Clear
5:53 PM 84.9 °F 89.4 °F 70.0 °F 61% 30.05 in 10.0 mi West 10.4 mph - N/A   Clear
6:53 PM 84.9 °F 89.4 °F 70.0 °F 61% 30.04 in 10.0 mi WSW 5.8 mph - N/A   Clear
7:53 PM 82.0 °F 85.9 °F 70.0 °F 67% 30.03 in 10.0 mi WSW 4.6 mph - N/A   Clear
8:53 PM 81.0 °F 84.4 °F 70.0 °F 69% 30.03 in 10.0 mi Calm Calm - N/A   Clear
9:53 PM 79.0 °F - 70.0 °F 74% 30.05 in 10.0 mi Calm Calm - N/A   Clear
10:53 PM 78.1 °F - 70.0 °F 76% 30.04 in 10.0 mi SSE 3.5 mph - N/A   Clear
11:53 PM 75.9 °F - 69.1 °F 79% 30.04 in 10.0 mi Calm Calm - N/A   Clear